User: anonymous   Login
Location: Joffre
(52.3362°N, 113.5373°W)
Time: 10:45:48
(UTC+00:00)
Language:

N. Korean satellite - Orbit

View from above orbital plane
View from above orbital plane
View from above satellite
View from above satellite

Ground track
Ground track

The orbit data is extracted from the following two-line orbital elements,

1 39026U 12072A   22027.72152658  .00007326  00000-0  23312-3 0  9993
2 39026  97.2605  20.6101 0031863 306.0381  53.7909 15.32382887507409
Epoch (UTC): 27 January 2022 17:18:59
Eccentricity: 0.0031863
inclination: 97.2605°
perigee height: 447 km
apogee height: 490 km
right ascension of ascending node: 20.6101°
argument of perigee: 306.0381°
revolutions per day: 15.32382887
mean anomaly at epoch: 53.7909°
orbit number at epoch: 50740

The dashed part of the orbit path shows where the satellite is in the earth's shadow,  

DLR